Location: Chatou
(48.8898°N, 2.1586°E)
Time: 17:25:36
(UTC+00:00)

SL-16 R/B - Pass Details

Date: 03 February 2023
Orbit: 842 x 846 km, 71.0° (Epoch: 29 March)

Event Time Altitude Azimuth Distance (km) Brightness Sun altitude
Rises 18:30:22 0° 216° (SW) 3,388 6.0 -16.4°
Reaches altitude 10° 18:32:50 10° 219° (SW) 2,458 5.2 -16.8°
Maximum altitude 18:38:26 65° 302° (WNW) 925 2.6 -17.7°
Drops below altitude 10° 18:44:06 10° 24° (NNE) 2,475 4.4 -18.6°
Enters shadow 18:44:40 - 25° (NNE) 2,690 4.5 -18.7°
